Theta_e
331 332 332 332 331 330 329 329 329 328 327 327 327 327 325 322 321 318 316 316 315 313 311 309 309 309 312 312 309 308 306 305 306 308 306 304 303 303 303 303 303 303 304 305 305 304 304 303 302 301 300 299 299 299 299 299 300 301 301 302 302 302 302 301 300 299 299 299 299 298 298 298 298 298
332 332 331 331 331 329 328 328 328 327 326 326 327 327 325 322 322 320 317 316 314 312 310 309 309 310 312 311 309 309 308 307 309 310 308 305 303 302 303 303 303 304 305 305 305 305 305 304 303 302 300 299 299 299 299 299 300 300 301 301 302 302 302 301 301 300 300 299 299 299 298 298 298 298
332 332 332 331 330 328 328 329 328 328 327 327 327 327 325 323 322 321 319 317 314 311 310 309 309 310 312 311 310 311 309 309 311 311 310 307 304 303 304 304 305 305 306 306 306 306 305 305 304 303 301 300 299 299 299 299 300 300 301 301 301 302 302 301 301 300 300 300 300 299 298 298 298 299
331 332 331 330 329 329 329 329 328 328 328 327 326 327 325 323 322 321 321 318 313 311 311 310 310 311 312 311 312 312 309 309 311 312 312 309 306 305 306 305 305 306 306 306 306 306 306 306 305 304 302 301 300 299 299 299 300 300 300 301 301 301 301 301 301 300 300 300 300 299 299 299 298 298
329 331 331 329 330 330 329 329 328 329 327 327 326 325 324 323 321 321 320 316 313 313 312 311 310 311 312 312 312 312 310 309 310 312 312 310 308 307 307 307 307 307 307 307 306 307 307 307 306 305 303 302 300 300 299 299 299 300 300 300 301 301 301 301 300 300 300 300 300 299 299 299 299 298
327 330 331 330 330 330 329 329 328 328 328 327 326 324 323 321 320 320 318 316 314 315 314 312 312 312 312 312 313 313 311 310 310 311 312 311 309 308 309 310 309 308 308 307 307 307 307 307 307 306 305 303 302 300 300 300 299 300 300 300 300 301 301 300 300 300 300 300 299 299 299 299 298 298
325 328 330 331 330 330 330 329 327 327 327 327 325 324 322 318 318 318 317 316 316 316 315 314 313 313 313 313 313 313 313 312 311 311 312 313 311 311 312 313 312 311 310 309 308 307 307 307 307 306 306 305 304 302 301 300 300 299 300 300 300 300 300 300 300 300 300 300 299 299 299 298 298 298
324 326 330 331 330 330 330 328 325 325 325 325 323 322 320 317 317 318 317 316 317 317 317 315 314 314 314 314 314 314 314 314 312 312 313 314 313 313 313 314 313 312 312 311 309 307 307 307 307 307 307 307 306 304 303 302 301 300 300 300 300 300 300 300 300 300 300 299 299 298 298 298 297 297
324 326 329 331 331 330 330 328 325 324 324 322 321 321 320 318 317 317 317 316 316 316 316 316 315 315 315 315 315 314 314 315 315 314 313 314 314 314 313 313 313 312 312 311 309 308 307 307 307 307 307 307 307 306 304 303 302 300 300 300 300 300 300 300 300 300 299 299 298 298 297 297 297 296
323 324 327 330 331 330 330 328 326 325 323 322 321 320 320 318 317 317 317 316 316 316 316 316 316 316 316 315 315 315 315 315 315 315 314 314 314 314 314 313 312 311 311 310 310 308 308 307 307 307 307 307 306 305 304 303 302 301 300 299 300 300 300 300 300 299 299 298 297 297 296 296 296 295
322 323 325 329 331 330 330 329 326 324 322 321 321 320 319 318 317 317 317 316 317 317 316 316 316 316 316 316 316 315 315 315 315 315 315 314 314 313 314 314 313 311 310 310 309 308 307 307 307 307 306 306 306 305 304 304 303 302 300 299 299 299 299 299 299 298 298 297 296 296 295 295 295 295
322 322 324 328 329 328 328 327 326 324 323 322 321 320 320 319 318 318 318 317 318 318 317 317 317 317 316 316 316 316 315 314 315 315 315 315 314 314 314 314 314 312 310 309 309 308 307 307 306 306 306 305 305 305 304 303 302 301 300 299 299 298 298 298 297 297 296 296 295 295 295 294 294 295
321 321 323 324 325 326 327 327 326 326 324 323 322 321 321 320 319 319 319 319 319 318 318 318 318 319 318 317 316 316 316 315 314 315 315 315 315 315 315 315 315 314 312 311 311 310 308 307 306 306 305 305 305 304 304 303 302 302 301 300 299 298 297 297 296 296 295 295 295 295 295 295 295 294
320 321 321 320 319 320 323 325 326 326 325 323 323 323 322 322 321 320 320 320 320 319 319 319 319 319 319 319 318 317 317 316 315 315 315 315 316 316 316 316 315 315 314 313 313 312 309 308 307 306 305 306 305 305 305 305 304 304 303 302 299 298 296 296 296 295 295 295 295 294 294 294 294 294
319 320 320 318 315 316 318 318 319 320 320 320 320 320 321 321 321 321 321 320 320 320 319 319 319 319 319 319 318 318 318 317 316 316 316 316 316 316 316 316 315 315 315 314 313 313 311 309 308 308 307 307 306 305 305 305 305 305 304 303 301 298 296 295 295 295 295 295 294 294 294 294 294 294
318 319 320 319 318 319 320 318 316 315 315 315 315 316 317 317 318 319 320 320 320 320 320 319 318 319 319 319 318 318 318 317 317 317 316 316 316 316 316 316 316 315 315 314 314 314 313 311 310 310 310 309 308 307 306 306 305 305 304 303 301 297 296 295 295 295 295 294 294 294 294 294 294 294
319 318 320 320 320 321 320 319 318 318 317 316 315 314 314 314 315 315 316 317 318 318 319 319 319 318 318 318 317 317 317 316 317 316 316 316 316 316 316 316 316 316 315 314 314 314 314 313 311 311 311 310 309 307 307 306 305 305 304 302 299 296 295 295 295 295 294 294 294 294 294 294 293 293
320 319 320 320 320 320 320 318 318 320 321 321 319 317 316 315 315 314 314 314 314 315 315 317 318 319 319 318 318 317 317 316 316 317 317 316 316 316 317 317 317 316 315 315 315 315 315 314 312 311 311 310 309 308 307 306 305 304 303 301 298 296 295 295 295 294 294 294 294 294 293 293 293 293
319 319 319 319 318 319 320 319 318 319 320 321 322 321 320 319 318 318 317 315 314 313 313 313 315 317 317 318 318 318 318 318 317 318 318 317 317 317 317 319 319 318 316 315 315 315 315 313 312 311 310 309 309 308 307 306 305 304 302 300 299 297 296 295 294 294 294 294 293 293 293 293 293 293
321 321 321 320 319 320 321 321 319 318 317 318 319 320 320 320 320 320 320 320 318 316 315 315 316 317 317 317 318 318 319 320 319 320 320 319 319 318 318 318 319 318 316 315 315 315 315 313 312 311 310 309 308 308 306 305 304 302 301 300 299 298 296 295 295 295 294 294 293 293 293 293 293 293
322 323 323 322 322 322 322 323 322 320 319 318 319 321 320 320 320 319 319 320 320 318 318 317 317 317 317 317 317 317 318 318 318 319 320 320 319 319 319 318 318 318 316 314 314 314 314 314 312 311 310 309 308 307 305 304 303 302 301 300 300 298 297 296 296 296 295 295 294 295 295 294 294 294
321 322 322 320 320 320 321 322 323 323 321 320 321 322 322 321 322 322 321 321 320 319 319 318 317 317 316 316 315 315 316 316 315 316 318 319 319 318 319 319 318 317 316 314 313 313 313 313 312 310 310 309 307 306 305 303 302 301 300 300 299 298 298 297 297 296 296 296 296 296 295 295 295 294
319 319 319 318 316 315 315 316 317 318 318 317 318 320 322 323 323 322 322 321 320 320 320 319 319 319 319 318 317 316 315 315 315 315 315 316 317 318 318 318 317 317 316 314 313 312 312 312 311 309 309 309 307 305 304 303 301 300 300 300 299 299 298 298 297 297 296 296 296 296 295 295 295 294
313 314 317 317 315 313 312 311 310 309 309 308 309 311 316 320 322 322 321 320 319 320 320 320 320 320 321 320 319 318 317 316 316 315 314 315 316 317 318 318 317 317 316 314 313 312 311 312 311 309 308 309 307 305 304 303 301 300 300 300 300 299 299 298 298 297 297 296 296 296 296 295 295 295
309 310 314 315 314 313 312 310 309 308 305 304 303 303 305 310 313 315 316 317 318 319 320 320 320 321 321 321 320 320 319 318 317 317 316 315 315 316 317 318 318 317 316 314 313 312 310 310 310 308 306 306 305 303 302 302 301 301 300 301 301 300 299 299 298 298 298 297 297 296 296 296 295 295
308 308 310 310 310 309 309 307 307 307 304 301 300 300 300 301 302 304 305 307 310 315 319 320 320 320 320 320 320 320 319 319 318 317 317 316 315 315 315 316 316 316 314 313 311 310 309 309 308 307 305 304 302 301 300 300 300 300 300 300 300 300 300 299 298 298 298 298 297 297 296 296 296 295
305 306 307 307 306 307 307 306 305 303 301 299 299 299 299 299 300 300 301 302 303 306 311 314 317 318 318 317 318 318 318 318 317 317 316 315 314 313 313 314 314 313 312 311 309 308 308 307 306 305 304 302 301 300 300 299 299 300 300 301 300 300 299 299 298 298 298 298 297 297 297 296 296 296
303 304 304 304 304 304 303 303 302 299 298 298 298 298 299 299 299 300 301 302 304 305 307 310 313 315 316 317 317 316 316 316 315 314 313 313 312 311 311 311 311 310 310 308 306 305 306 304 303 303 302 301 300 300 300 300 300 300 301 301 300 299 299 298 298 298 297 297 297 297 297 297 296 296
300 300 300 300 299 299 298 298 297 297 298 299 298 298 298 298 299 302 304 306 307 308 309 310 311 312 313 315 315 315 315 314 312 311 311 310 310 309 308 307 307 307 306 305 303 303 303 301 300 300 299 299 299 299 299 299 299 300 300 299 299 299 298 298 298 298 297 297 297 297 297 296 296 296
300 299 299 298 297 297 297 298 298 299 300 300 299 299 299 299 301 304 307 307 308 309 309 309 310 311 312 312 313 313 313 312 311 310 309 308 307 307 306 304 303 302 301 301 300 300 300 299 299 298 298 297 297 297 297 298 299 299 299 299 298 298 298 298 298 297 297 297 297 296 296 296 296 295
300 299 298 298 298 299 300 301 301 302 302 303 303 303 304 304 305 306 306 306 307 308 308 309 310 310 311 311 311 311 311 310 309 308 307 306 305 304 303 302 300 299 298 297 297 298 298 297 297 297 297 297 297 297 297 298 298 298 298 298 298 298 298 298 298 297 297 297 296 296 296 296 296 295
297 297 298 299 301 302 302 303 304 304 304 305 305 306 306 306 306 306 306 307 307 306 307 307 308 309 310 311 310 309 309 308 307 306 305 304 303 302 301 300 299 298 296 296 295 295 295 295 295 295 296 297 297 298 298 297 297 297 298 298 298 298 297 297 297 297 297 296 296 296 296 296 296 295
296 297 299 301 302 303 303 303 303 303 303 303 303 304 304 304 304 305 305 306 306 306 307 307 307 308 309 309 309 309 308 308 307 306 305 304 302 301 301 300 299 297 296 295 294 294 294 294 294 294 295 296 297 297 297 297 297 297 297 298 298 298 297 297 297 297 296 296 296 296 296 296 296 295
297 298 300 302 302 302 302 302 302 302 302 302 302 302 303 303 303 304 304 304 305 305 305 305 306 306 306 306 307 307 307 307 307 306 304 303 301 300 300 299 298 297 296 295 294 294 293 293 293 294 294 295 295 296 296 297 297 297 297 297 298 297 297 297 297 296 296 295 295 295 295 296 295 294
298 299 301 302 302 302 301 301 301 301 301 301 301 302 302 302 303 303 303 303 304 303 303 303 303 304 304 304 304 304 304 304 304 303 302 301 299 298 299 298 297 296 296 296 295 295 294 294 295 295 295 296 296 296 296 296 296 297 297 297 297 297 297 296 296 296 295 295 295 295 295 295 295 294
299 300 301 301 301 301 301 301 301 301 301 301 301 301 301 302 302 302 303 303 304 303 303 303 302 302 301 301 302 302 301 301 301 300 299 299 298 298 298 297 297 297 296 296 296 296 295 296 296 296 297 297 297 297 296 296 295 296 297 297 297 296 296 296 296 296 295 295 295 295 294 294 294 294
300 301 301 301 301 301 301 301 301 301 301 301 301 301 301 301 302 302 303 303 303 303 303 302 302 302 301 300 300 300 299 299 298 298 297 298 298 297 297 296 296 296 296 296 296 296 296 296 296 296 297 297 297 296 296 295 295 295 296 296 296 296 296 296 295 295 295 295 295 295 295 294 294 293
300 300 300 300 300 300 300 301 301 300 300 301 301 301 301 301 301 301 301 302 302 302 301 301 301 301 300 300 299 298 297 297 297 297 296 296 296 295 295 295 295 295 295 295 295 295 295 295 296 296 296 296 296 296 296 295 295 294 294 295 296 296 295 295 295 295 295 295 295 295 294 294 293 293
300 300 300 300 300 300 301 301 300 300 300 300 299 299 299 299 299 298 299 299 299 299 299 299 299 299 299 299 298 296 296 296 296 295 295 295 294 294 294 294 295 295 295 294 294 294 295 295 295 295 296 296 296 296 295 295 295 295 294 294 295 295 295 295 295 295 295 295 294 294 294 294 293 293
299 300 300 300 300 300 300 300 299 299 298 298 297 297 297 296 296 296 296 297 297 297 297 297 297 297 297 297 296 295 295 295 294 294 295 294 294 294 294 294 294 295 294 294 294 294 295 295 295 296 296 295 295 295 295 295 295 295 294 294 294 294 294 295 295 295 295 295 294 294 294 294 293 293
299 299 299 299 299 298 298 298 297 297 296 296 295 295 295 294 294 294 294 295 295 295 295 295 295 295 295 295 295 294 294 294 294 293 294 293 293 293 293 293 294 293 293 293 294 294 295 295 295 295 295 295 294 294 295 295 296 295 295 294 293 293 294 294 294 294 294 294 294 294 294 294 294 293
298 298 298 297 297 297 296 296 296 295 295 294 294 293 293 293 293 293 292 292 293 293 293 293 293 293 294 294 294 294 294 293 293 293 292 292 292 292 292 293 293 293 293 293 293 294 294 294 294 294 294 294 294 294 295 296 296 296 295 295 294 294 294 293 293 293 293 293 293 293 293 293 293 293
297 297 297 297 296 296 295 295 294 294 294 293 293 293 293 292 292 292 292 292 292 292 292 292 292 292 292 292 293 293 293 293 293 292 292 292 292 292 292 293 293 293 293 293 294 294 294 294 294 294 294 294 294 294 295 295 296 296 296 295 295 294 294 293 293 293 292 292 292 291 291 291 292 292
295 296 296 295 295 294 294 294 294 294 293 293 293 293 293 293 292 292 292 291 291 291 291 292 292 292 292 292 292 292 292 292 292 292 292 292 292 292 292 292 292 292 293 293 294 294 293 293 294 294 294 294 294 294 295 295 295 295 295 295 295 295 294 294 294 293 293 293 292 292 291 291 291 291
294 294 294 294 294 293 293 293 293 293 293 294 294 293 293 293 293 292 292 291 291 291 291 291 291 291 291 291 291 291 291 291 291 291 292 292 292 292 292 292 292 292 293 293 293 293 293 293 294 294 294 294 294 294 295 295 295 295 295 295 295 295 295 294 294 294 294 293 293 293 292 291 291 291
Wind_Speed
9 9 9 7 7 7 7 8 9 10 12 13 9 8 10 8 5 5 5 5 8 10 10 10 11 11 12 13 12 13 12 12 12 11 10 10 10 10 9 9 9 9 9 9 8 8 8 8 9 9 9 9 8 8 7 7 7 7 7 7 8 8 9 10 10 11 12 13 14 14 13 13 13 12
7 8 9 8 7 8 8 9 11 10 12 13 9 8 10 9 6 6 6 5 7 10 10 10 12 13 13 13 12 13 13 12 12 11 9 9 10 11 10 9 9 8 8 7 6 6 6 6 7 7 8 7 7 7 6 6 6 6 6 7 7 7 8 8 9 10 10 12 13 13 13 13 13 13
7 8 8 8 9 9 9 9 11 12 13 13 10 8 8 8 8 10 8 6 7 10 10 11 13 14 13 13 13 13 13 13 13 10 9 10 10 11 10 9 8 7 6 6 4 4 4 3 4 5 6 6 6 6 5 5 5 5 5 6 7 7 8 8 9 9 9 10 12 12 12 12 12 13
7 9 9 9 9 10 10 9 10 13 14 13 12 10 8 6 8 11 9 8 9 9 10 11 13 14 14 13 13 13 13 14 13 10 11 12 10 10 10 9 8 7 6 5 4 3 2 1 2 3 4 5 5 5 5 5 5 5 5 6 6 7 8 8 8 9 9 10 10 11 12 12 12 13
7 8 8 9 9 9 9 9 9 12 14 13 13 13 10 7 8 10 8 13 11 9 10 11 13 14 14 13 13 13 13 14 14 11 12 14 12 10 10 9 8 7 7 6 5 4 3 2 1 2 3 4 5 5 5 5 4 6 6 6 7 7 8 9 9 9 9 10 11 11 12 13 13 13
6 7 7 9 9 8 9 9 9 10 13 14 15 15 11 8 9 10 8 16 12 10 11 11 13 14 13 12 13 13 14 15 14 12 13 13 12 12 12 12 11 10 9 8 7 6 6 5 4 3 3 4 5 5 5 5 5 6 6 7 7 8 8 9 9 10 10 11 12 13 14 14 14 14
6 6 7 8 9 9 8 8 9 10 11 12 14 14 10 9 10 10 8 17 13 11 12 12 13 13 12 12 13 14 14 14 14 13 13 13 11 12 12 12 13 13 12 10 10 9 9 8 7 6 5 5 6 6 6 6 6 6 7 7 8 9 9 10 11 12 12 13 14 15 16 16 15 15
5 6 7 8 9 10 9 9 10 11 12 11 11 11 8 10 9 7 8 17 15 12 12 12 13 14 13 12 13 14 14 14 13 13 13 13 12 12 11 10 13 14 13 13 13 12 12 11 11 10 8 7 7 8 8 8 7 7 8 8 9 10 10 11 12 13 14 14 15 16 17 17 17 16
3 6 7 8 10 11 10 10 10 11 12 12 12 11 10 11 9 5 6 12 14 14 13 11 11 13 13 12 12 14 14 14 13 13 13 13 12 12 11 11 14 15 13 14 15 14 14 14 14 13 12 11 10 9 9 9 8 8 8 9 10 11 12 13 13 14 15 16 16 17 18 18 18 18
2 5 7 8 10 11 10 10 11 11 12 11 11 12 11 11 11 8 8 8 10 13 14 12 11 11 13 12 11 12 13 13 13 12 12 12 12 12 11 12 14 17 17 18 19 18 17 17 17 17 16 14 13 12 11 10 10 9 9 10 11 12 13 14 15 15 16 17 18 18 19 19 19 18
1 3 6 8 9 9 8 9 10 12 12 10 10 11 11 10 13 12 10 9 8 9 11 13 12 11 12 12 11 11 12 12 12 12 12 12 12 12 13 12 12 14 17 19 21 21 20 19 19 18 17 16 15 14 13 12 11 10 10 11 12 13 14 15 16 17 18 19 19 19 18 18 17 16
1 1 4 6 6 6 7 9 9 11 11 9 9 10 10 8 11 13 11 10 9 10 10 10 10 11 12 11 11 11 11 12 12 12 12 12 12 12 13 14 13 11 12 15 17 18 19 20 20 19 18 18 17 16 15 14 13 11 11 12 13 13 15 16 17 18 18 18 18 17 17 16 16 15
3 2 2 2 3 5 8 9 9 9 11 9 7 8 8 7 7 10 10 10 10 11 11 11 10 11 11 11 12 12 12 12 12 12 12 12 11 11 11 13 14 12 12 13 13 14 16 18 19 19 20 20 19 17 16 15 14 13 12 12 13 14 15 17 18 18 17 17 16 16 16 16 16 15
5 4 3 3 3 5 6 7 7 8 10 10 7 6 8 8 7 9 10 11 11 11 11 12 12 12 12 12 13 14 13 13 12 11 12 12 12 12 12 13 14 14 15 14 13 14 15 15 15 15 16 17 17 16 16 17 15 13 12 12 13 14 16 17 17 17 16 16 16 16 16 16 15 14
6 5 5 5 4 4 5 5 6 7 9 10 9 6 8 9 8 8 9 10 10 10 11 12 12 12 13 13 13 13 13 13 13 12 12 12 12 13 13 14 14 14 16 16 15 15 15 16 15 13 14 17 18 16 16 17 16 14 13 13 15 16 17 17 16 16 15 15 16 16 16 15 14 15
7 7 6 5 4 3 5 4 4 5 6 7 8 7 8 9 9 9 9 9 9 9 9 11 12 12 12 12 13 13 13 12 13 13 13 14 14 14 14 15 15 14 16 18 17 16 15 16 16 15 14 15 17 17 18 19 18 16 16 16 17 17 17 16 16 15 15 15 16 16 15 15 15 15
4 6 6 6 5 5 5 4 4 5 5 4 5 7 7 8 10 11 11 11 11 10 9 10 11 11 11 12 12 12 11 11 12 13 15 15 15 16 16 17 17 15 16 19 17 16 16 16 17 16 14 13 15 18 20 20 19 18 18 18 18 17 17 16 16 15 15 15 16 15 15 16 15 15
2 4 4 4 5 6 6 6 6 6 6 5 6 7 8 9 10 11 13 14 15 15 14 13 12 11 11 11 12 11 11 12 13 14 15 15 16 18 17 17 17 15 16 17 16 15 16 15 16 15 14 13 14 16 19 20 20 19 18 17 16 16 16 16 15 15 16 16 16 16 16 16 16 16
4 5 4 5 5 5 5 6 8 7 6 6 7 8 9 10 11 13 14 16 17 17 18 19 17 15 14 13 13 12 11 12 13 14 15 15 16 18 17 15 13 13 15 16 15 15 15 14 15 15 14 14 14 16 18 20 19 19 17 15 14 14 14 15 14 14 16 16 16 16 17 17 17 16
5 5 5 5 5 3 2 5 8 9 9 9 9 10 11 11 12 14 15 17 19 19 18 19 18 18 18 18 17 15 14 13 12 13 14 15 14 15 16 16 14 13 14 16 17 15 15 13 15 15 14 14 15 16 17 18 18 17 16 14 13 13 13 13 13 13 14 14 14 14 15 15 15 16
5 4 5 5 3 3 4 7 9 11 12 11 11 12 13 14 14 16 16 18 20 22 21 20 20 20 21 21 21 20 19 19 17 15 14 15 15 16 15 16 18 15 14 18 19 17 16 15 15 15 14 14 15 14 14 15 15 14 14 14 12 12 11 11 11 11 10 9 9 11 12 13 14 15
4 5 6 6 5 5 7 9 10 11 12 12 11 12 14 16 17 17 17 17 17 19 21 22 23 25 25 25 25 25 25 25 24 21 19 18 16 16 17 16 17 17 16 19 20 17 15 15 14 13 13 13 14 14 12 13 13 13 13 14 12 11 10 9 9 9 7 6 7 10 11 12 13 14
4 5 6 7 7 8 10 11 11 13 13 13 13 12 12 15 15 16 18 19 18 18 21 22 24 26 27 27 29 29 29 29 28 27 27 24 19 18 20 18 16 16 16 18 20 17 15 14 13 13 12 11 12 13 13 12 13 12 11 12 11 10 10 10 9 8 7 7 7 8 9 10 13 12
6 5 4 6 8 9 10 12 12 12 12 13 15 15 13 13 13 14 18 19 17 17 20 23 25 24 23 23 25 28 30 31 33 32 31 30 25 21 21 21 19 18 15 15 19 20 17 15 14 14 13 10 8 9 11 11 10 9 8 9 10 10 9 9 9 9 9 8 7 6 7 9 11 11
8 6 2 3 7 9 10 11 12 13 14 15 17 18 17 17 17 18 21 21 20 19 19 20 23 24 23 21 20 21 24 27 31 33 33 33 30 24 20 20 19 18 15 14 18 20 17 15 14 13 12 10 6 6 9 9 9 9 9 9 9 8 8 8 8 10 10 9 8 7 7 9 11 10
8 7 4 4 8 12 13 14 15 16 18 19 20 21 21 21 22 22 23 24 24 22 19 19 21 22 23 23 21 20 19 19 23 28 30 31 29 25 21 19 17 15 14 14 17 18 15 13 13 13 11 10 7 6 7 8 8 10 10 9 8 8 8 7 7 8 8 8 9 9 9 11 12 11
8 8 8 10 13 14 16 19 20 21 22 22 22 22 22 23 23 23 24 25 24 23 22 22 23 23 23 23 24 23 21 19 20 24 25 24 23 22 22 22 20 16 14 13 15 16 12 10 12 13 10 9 7 7 8 8 8 9 9 9 8 8 8 7 7 8 8 8 9 10 11 13 12 9
8 10 14 18 19 19 21 23 24 25 25 24 23 22 22 23 23 24 24 23 21 21 21 21 22 24 24 24 26 26 23 18 15 17 18 16 15 16 17 19 19 16 13 11 14 15 13 12 13 13 11 8 7 6 7 8 8 7 7 7 7 8 8 8 7 8 8 8 8 10 11 11 9 7
10 12 16 19 20 20 21 21 21 22 21 20 20 20 20 21 22 20 19 17 15 16 17 17 19 20 21 22 24 24 23 18 11 9 11 11 12 14 14 14 14 12 11 13 15 15 13 12 12 13 13 10 8 5 4 4 5 5 5 6 6 7 8 8 8 7 8 8 8 9 9 9 8 7
10 13 16 18 18 16 15 15 15 14 14 15 17 18 17 17 17 15 14 13 13 14 16 16 17 18 18 18 18 17 18 15 11 10 11 12 13 13 11 8 7 7 9 11 13 13 13 11 10 11 11 10 8 5 3 3 4 4 5 5 6 6 7 7 6 7 7 8 8 9 9 9 8 7
10 13 17 18 16 14 13 13 12 12 13 13 14 15 14 13 13 12 12 13 14 16 17 17 17 17 17 17 16 12 9 8 9 9 10 10 9 9 8 7 6 6 6 8 9 11 12 11 10 8 7 6 5 5 5 3 3 4 5 6 7 7 6 5 5 6 7 7 8 9 9 8 7 4
12 14 15 14 13 12 12 11 10 10 11 11 11 12 12 12 12 13 14 14 14 15 17 18 18 18 17 17 16 12 7 7 7 8 9 10 9 10 11 10 9 8 8 7 8 9 10 9 8 7 5 5 5 5 6 5 4 5 7 8 9 8 7 6 6 7 6 6 8 9 9 8 6 4
11 12 11 10 9 9 9 9 9 9 10 11 12 12 13 13 13 13 13 13 13 14 15 15 16 18 18 16 15 13 11 10 9 9 9 10 10 12 11 10 9 10 9 8 8 8 8 7 7 7 7 6 5 4 5 5 6 6 7 7 9 8 7 6 7 6 5 6 8 8 9 8 5 5
9 9 9 8 8 8 9 10 10 11 12 12 13 13 13 14 14 14 14 14 14 15 16 16 17 17 15 13 13 13 13 14 12 11 11 10 11 12 10 8 9 9 8 8 7 6 6 5 6 7 8 7 6 5 6 6 6 6 7 7 7 7 7 6 6 5 5 6 7 7 8 8 3 4
7 8 7 7 8 8 9 10 10 11 12 13 13 13 13 14 14 15 16 15 13 13 13 14 15 14 10 10 12 12 11 11 10 10 11 10 10 11 10 9 10 9 9 9 8 7 7 7 7 7 8 8 7 7 8 8 6 5 6 6 6 6 6 6 6 5 5 6 7 7 8 8 5 2
6 7 7 8 8 9 9 10 10 11 12 12 13 13 13 13 13 14 15 14 12 11 10 10 11 11 9 9 10 9 9 9 7 8 10 10 10 11 11 10 11 11 10 9 9 9 8 9 9 9 8 7 6 5 8 10 8 5 5 6 6 6 6 5 5 5 6 6 7 7 7 8 8 8
7 7 8 9 9 9 10 10 11 11 12 12 13 13 14 14 14 15 15 13 11 10 9 8 10 11 10 9 7 7 8 9 9 8 9 10 10 11 11 12 12 11 9 8 8 7 6 7 8 7 6 5 4 2 4 8 9 7 7 7 6 6 6 4 3 5 7 7 7 7 7 8 7 6
7 8 8 8 9 9 10 10 11 12 12 13 13 13 14 14 14 15 15 13 11 9 9 9 10 11 11 9 7 6 8 10 11 11 11 12 12 13 13 13 11 9 8 7 6 5 4 4 5 5 4 4 3 0 3 6 7 6 7 9 7 4 4 4 4 6 7 7 7 7 7 7 6 5
8 8 8 8 9 9 10 10 11 11 12 13 13 13 14 14 14 15 14 13 10 9 9 10 12 12 11 9 8 7 8 11 12 12 12 12 14 13 12 10 8 8 8 8 6 4 4 5 5 5 4 3 2 3 4 1 3 4 5 8 7 5 4 4 5 6 6 6 7 7 7 8 9 10
8 8 8 9 9 10 10 10 10 11 11 12 12 12 13 13 13 14 14 13 11 9 8 9 9 10 9 7 6 7 9 12 13 13 12 12 12 10 9 7 7 7 7 7 5 4 4 3 2 2 2 1 2 3 3 2 2 5 5 6 6 5 4 4 5 6 6 6 7 7 8 8 8 8
8 8 8 8 9 9 10 10 10 10 11 11 11 11 11 11 12 12 13 12 11 8 6 6 6 6 5 3 5 8 10 12 13 13 12 10 10 9 8 6 6 5 6 6 4 3 2 2 1 1 1 1 3 3 3 4 4 6 8 8 7 5 4 4 5 6 7 7 8 8 10 10 8 6
8 8 8 8 8 9 9 9 10 10 10 10 10 10 10 10 11 11 11 11 10 8 6 6 6 4 4 4 4 7 9 10 11 11 10 9 9 9 7 5 5 4 5 6 5 3 2 2 2 3 1 1 2 3 3 3 4 3 5 7 7 6 4 2 2 3 5 5 5 7 8 9 8 6
8 8 8 8 9 9 9 9 10 10 10 10 10 10 10 10 10 10 9 9 9 9 9 9 11 12 12 12 12 11 10 10 10 10 8 8 7 6 4 4 4 4 3 3 4 3 2 1 1 0 2 3 3 4 3 3 4 4 3 6 7 6 3 1 1 1 3 5 5 4 4 6 7 6
9 9 9 9 8 9 9 9 9 9 10 10 10 10 10 10 10 10 9 9 9 11 13 13 14 15 16 16 15 15 15 14 12 9 7 6 6 6 5 5 4 3 3 2 2 2 2 2 2 2 3 3 4 4 4 4 3 4 3 2 6 5 4 4 4 5 6 7 8 6 5 5 6 7
9 8 8 8 8 8 8 8 8 9 9 9 9 9 10 10 10 10 10 11 11 13 14 14 14 14 15 16 16 15 13 11 8 7 7 6 6 6 6 4 4 3 3 2 1 1 2 2 3 3 3 3 4 4 4 3 2 3 3 1 3 4 5 6 7 8 10 10 9 8 7 6 6 6
Wind_Direction
205 202 204 200 202 206 207 196 178 175 185 193 204 206 194 183 165 159 160 148 145 155 160 147 142 148 142 140 148 149 149 144 135 139 149 147 144 141 139 136 132 127 117 105 95 85 74 64 55 48 45 41 38 37 35 34 33 27 21 16 14 16 18 19 22 24 24 22 22 22 22 22 22 21
202 206 205 197 194 196 203 192 173 176 184 183 200 219 197 181 175 168 154 140 151 160 162 154 151 153 150 147 148 151 154 146 138 149 160 158 153 147 145 146 142 139 132 121 108 93 77 59 48 37 32 32 28 26 26 25 24 17 11 6 1 1 3 7 9 11 12 12 12 12 11 9 8 7
199 206 203 194 188 185 198 192 169 169 175 179 198 206 181 177 187 189 176 146 149 163 163 157 155 157 156 155 155 156 160 153 148 160 171 171 166 157 157 161 158 159 153 142 134 111 85 55 40 27 19 18 15 14 13 10 8 4 358 353 349 348 348 350 355 357 358 358 358 359 358 356 354 354
204 207 200 196 192 184 194 194 174 169 168 176 189 183 181 192 199 209 196 144 144 165 161 153 156 160 159 161 162 161 166 165 160 167 184 191 189 175 176 183 180 184 183 171 170 156 124 62 23 10 3 1 359 359 357 353 348 342 341 340 339 337 335 337 339 340 341 341 342 343 344 343 341 340
212 217 204 200 198 192 195 190 184 179 167 169 175 176 191 196 202 223 182 135 144 161 156 157 159 161 165 168 171 167 170 176 175 176 191 206 212 200 197 210 214 214 213 206 206 207 215 239 289 328 338 341 342 341 339 337 329 326 328 330 330 328 325 325 324 324 325 324 325 327 328 330 329 328
208 219 209 202 197 196 199 191 191 187 173 172 171 180 198 177 187 229 170 135 150 159 158 169 161 163 176 178 177 178 176 181 188 191 193 204 213 209 208 221 232 235 234 232 233 233 240 249 258 282 306 318 325 327 325 323 318 315 316 317 319 317 315 314 313 312 311 311 314 316 319 321 320 320
196 209 207 202 194 189 193 192 193 189 183 181 173 183 197 159 175 229 166 140 156 164 164 177 168 168 187 190 186 186 185 187 194 200 199 200 206 209 212 219 229 235 239 243 247 245 247 252 255 267 286 300 308 312 312 312 309 306 306 305 305 305 304 302 301 302 303 305 309 312 314 315 316 317
190 199 203 199 192 186 186 191 193 188 187 187 174 176 178 155 175 221 155 146 161 167 169 183 179 172 185 200 198 191 190 192 196 206 208 205 208 213 212 216 226 233 240 248 252 251 251 255 258 262 270 281 290 295 297 299 300 299 297 296 295 294 294 295 295 296 299 302 305 308 311 312 313 315
194 202 205 199 193 187 182 187 190 188 187 184 175 177 178 164 167 189 171 162 166 168 173 188 191 179 181 201 206 196 194 194 199 210 214 212 215 215 211 218 230 235 239 246 251 251 251 254 257 261 263 268 274 278 281 284 287 289 288 286 287 288 289 290 291 292 295 299 302 305 306 307 309 310
212 213 209 200 195 190 182 183 185 184 188 186 176 184 196 178 159 171 198 193 177 175 178 185 193 191 187 196 207 205 201 199 201 209 216 220 220 217 213 218 231 239 243 247 251 253 254 255 255 258 259 260 264 269 274 277 279 281 282 281 280 282 284 286 288 291 295 298 301 303 304 306 308 309
249 224 210 203 198 191 180 179 180 178 184 191 180 185 208 195 163 170 197 203 193 196 194 188 192 198 196 198 208 212 206 205 210 211 214 222 222 220 220 217 222 235 242 249 254 253 252 253 254 254 256 258 260 264 267 268 270 272 273 275 277 279 282 284 288 291 295 299 301 303 306 308 309 310
254 217 200 201 186 174 175 175 179 182 184 193 188 186 210 206 166 170 196 207 202 209 215 207 202 204 204 203 211 218 212 210 217 219 219 224 224 222 222 219 220 223 225 238 252 253 248 248 251 252 251 253 257 260 262 261 261 265 269 273 276 279 283 287 290 293 296 299 301 304 306 308 309 310
222 200 165 176 157 166 183 179 181 189 186 189 193 188 205 218 188 182 200 214 214 215 219 221 218 215 215 211 211 217 220 216 219 224 226 228 230 230 228 225 226 226 221 222 235 245 244 242 248 253 253 256 257 255 258 259 257 262 270 273 277 282 287 289 291 294 295 298 300 301 303 304 306 306
217 204 146 115 119 148 171 177 181 188 186 187 194 185 186 203 214 209 212 220 223 222 222 223 223 221 223 220 213 212 217 219 223 230 232 233 234 235 238 237 232 228 228 229 230 235 234 229 235 243 245 253 256 250 252 258 259 262 265 269 277 284 288 290 291 292 294 296 297 297 300 301 302 303
208 204 169 143 132 131 141 155 164 173 182 191 202 201 190 201 218 222 222 227 227 226 228 226 223 222 225 225 220 218 219 219 224 232 239 241 239 236 241 249 246 232 224 226 235 239 231 221 224 227 227 239 248 246 247 253 258 262 261 265 277 285 287 288 289 290 291 292 294 296 299 301 301 302
203 200 188 169 164 158 155 156 157 169 178 188 203 212 208 213 224 227 232 237 237 239 242 237 232 229 229 227 224 225 226 224 225 231 237 241 243 243 244 249 256 250 228 221 230 240 234 220 221 226 228 232 234 232 235 243 250 257 261 267 277 284 286 286 287 289 290 291 293 297 299 300 301 301
210 202 202 194 197 198 192 199 216 217 217 220 227 233 233 230 229 229 234 241 248 258 264 256 245 240 241 239 234 232 233 232 231 234 238 240 244 249 249 249 257 258 236 220 221 235 238 224 219 224 228 229 226 223 229 235 240 248 257 267 275 281 283 285 286 288 290 292 295 297 299 300 302 302
225 221 228 219 216 216 218 230 236 229 235 249 252 249 247 245 243 240 239 239 243 249 255 258 257 253 252 252 248 245 245 242 240 241 244 246 247 250 254 256 257 253 237 222 216 233 242 227 217 224 225 226 231 233 235 237 238 245 256 265 273 280 281 281 284 288 291 294 295 296 299 300 301 302
225 231 245 247 245 240 228 229 233 235 245 254 256 255 250 246 248 246 244 243 242 242 244 247 252 254 256 256 254 250 247 244 243 243 245 250 254 255 255 252 243 235 234 225 217 235 245 220 208 224 227 220 226 232 234 238 243 251 260 268 276 282 281 280 285 291 293 293 294 296 300 302 304 304
234 233 239 245 257 264 231 223 229 236 247 256 261 261 257 254 253 249 246 246 244 242 242 241 243 246 247 247 246 242 237 236 239 244 245 244 246 248 248 245 237 226 224 221 218 233 245 223 211 226 231 223 222 225 229 238 248 257 263 269 276 281 281 283 291 298 299 297 299 303 308 310 311 309
245 232 231 243 274 290 254 243 243 244 249 257 264 266 264 262 261 258 256 254 249 246 245 244 243 244 245 247 246 245 241 238 239 244 244 238 238 245 249 250 249 242 222 217 222 233 244 239 226 225 230 227 220 218 227 237 245 255 263 265 273 281 282 285 297 311 315 313 317 323 325 325 322 318
254 242 246 254 264 265 255 252 256 257 258 261 268 275 274 269 268 267 266 266 261 252 249 252 254 253 253 254 251 249 247 246 247 247 244 240 242 250 254 254 258 258 240 225 225 231 241 241 226 219 230 231 219 217 230 238 236 240 251 260 270 277 274 280 301 317 320 321 331 333 331 333 334 330
272 256 262 265 259 259 259 258 260 262 264 264 264 270 275 274 274 274 272 273 273 267 261 263 267 266 263 262 259 255 252 250 249 248 245 245 245 248 253 255 257 264 257 234 222 220 229 234 220 210 221 231 223 219 223 230 232 233 242 256 265 263 262 278 302 309 296 294 312 323 324 333 340 337
291 271 254 254 259 263 262 262 265 270 274 275 271 271 274 275 273 275 276 274 275 277 270 263 263 267 268 267 264 261 257 254 253 250 247 246 245 245 251 254 253 257 260 242 223 217 221 227 219 208 215 234 237 211 202 211 226 228 231 242 249 252 261 282 299 293 277 274 285 300 313 328 338 336
292 285 263 244 261 267 269 272 276 278 283 288 286 282 281 279 278 280 283 280 278 283 280 266 259 259 260 260 257 254 253 252 252 252 250 246 245 244 249 256 258 257 260 253 232 217 211 213 209 200 208 225 226 189 190 204 217 223 227 228 232 247 263 276 288 287 278 272 272 282 301 321 326 322
296 299 321 312 282 276 281 287 289 288 289 290 290 289 287 286 285 285 285 284 282 284 284 276 267 262 259 259 258 250 246 244 245 251 254 250 244 239 240 247 254 255 257 248 225 209 202 203 200 192 194 206 206 197 206 219 226 231 230 222 223 240 249 253 269 280 279 271 268 275 295 311 312 310
310 308 301 291 282 280 283 286 288 291 292 292 291 290 289 288 288 287 286 286 285 283 281 278 275 272 269 268 266 261 259 254 247 249 253 249 241 234 235 241 245 249 252 238 211 203 203 196 189 186 182 188 200 209 218 227 233 230 221 215 229 244 245 247 259 272 276 271 270 280 292 299 303 303
305 296 285 280 282 286 287 288 289 291 293 295 294 293 292 292 293 294 292 289 287 282 279 275 273 272 272 271 270 269 267 262 252 245 243 240 232 226 230 237 240 240 238 214 193 195 200 191 185 186 182 182 196 211 221 224 224 220 216 221 238 245 243 246 257 269 275 273 275 283 287 291 299 300
300 295 289 288 292 296 296 296 296 294 294 294 294 294 294 294 295 295 290 285 281 277 273 272 271 270 270 269 269 270 267 260 242 223 219 211 203 206 217 231 235 230 218 201 193 198 201 196 191 191 189 187 189 197 227 236 225 224 230 233 239 248 252 255 261 268 271 273 278 283 285 288 291 289
325 316 308 307 310 312 313 309 303 297 293 290 289 289 288 285 282 280 276 275 278 277 275 275 275 274 276 276 274 276 272 255 222 198 201 203 203 210 217 222 219 210 198 188 188 192 193 189 185 186 188 191 193 198 223 246 241 239 238 232 239 257 262 256 254 260 266 274 281 284 287 284 275 275
327 316 310 312 316 317 316 312 305 301 297 291 286 284 277 265 261 266 275 281 284 284 282 282 281 281 283 283 279 278 268 235 207 199 204 207 204 201 191 173 167 182 185 177 175 179 181 181 180 175 173 180 194 204 208 214 235 247 243 235 237 250 259 251 246 256 269 282 286 286 287 276 258 271
310 310 307 310 312 309 305 303 300 299 299 296 295 297 293 282 277 283 289 286 281 280 280 280 281 283 284 280 276 271 250 215 204 203 207 206 193 181 179 173 168 173 178 176 173 171 171 176 181 176 168 174 190 201 201 200 214 236 247 245 240 245 257 259 256 262 273 283 286 287 289 279 253 246
319 319 309 304 309 311 312 314 315 316 317 316 313 313 312 304 296 294 294 291 289 290 289 284 282 284 281 274 269 267 259 247 236 225 222 216 194 183 185 184 176 172 166 163 171 175 178 188 192 185 181 186 194 204 211 216 220 227 241 249 246 243 244 246 252 261 273 285 290 290 295 294 255 198
316 308 296 298 314 324 326 326 325 323 321 318 315 313 311 306 301 296 294 293 293 295 293 287 283 284 283 273 266 264 264 263 255 240 230 214 188 182 183 172 164 162 153 149 161 172 180 190 193 189 188 190 199 213 223 232 237 233 234 239 241 241 241 240 247 258 268 282 291 292 295 300 275 157
292 286 294 312 324 327 325 323 320 316 314 312 310 308 306 305 305 302 296 289 281 280 287 289 286 285 282 275 270 267 262 259 246 224 215 204 186 184 182 165 155 154 150 148 156 165 170 170 172 183 192 194 203 214 215 217 227 238 238 235 227 229 239 239 241 255 271 277 279 284 291 294 287 293
303 312 326 330 329 326 324 320 316 314 312 309 306 304 303 302 302 300 299 294 284 278 285 295 293 291 287 278 271 264 251 238 216 195 197 194 184 178 170 156 150 153 153 153 156 163 175 182 185 195 202 201 206 212 203 201 206 215 229 236 230 225 233 241 244 255 269 273 271 276 284 288 290 297
330 342 342 335 331 330 327 323 321 319 315 312 310 309 308 306 304 302 302 302 300 298 298 296 289 287 286 278 267 253 235 221 199 177 173 172 166 157 144 134 136 140 140 144 150 158 177 198 206 212 218 219 228 213 168 182 196 206 211 219 226 227 227 234 255 262 264 269 273 275 278 288 295 292
348 348 340 334 332 329 325 323 322 319 316 316 317 316 315 317 321 321 318 318 322 324 322 318 310 302 294 282 264 243 222 208 189 168 157 153 147 137 127 123 127 131 132 137 149 161 180 203 214 223 235 244 255 11 111 163 198 214 209 203 208 233 239 232 246 262 265 270 279 281 282 287 287 281
357 350 340 336 334 331 330 330 329 327 325 326 326 324 325 329 335 336 335 338 346 348 343 335 323 312 301 285 261 227 197 183 169 151 142 139 135 131 127 130 143 153 149 145 150 173 198 209 216 220 232 261 320 38 52 135 199 185 184 193 201 226 252 243 248 269 281 285 286 287 286 277 263 257
357 350 348 346 343 342 342 341 338 337 336 334 331 329 329 333 338 337 333 331 335 343 350 343 322 306 298 281 243 202 174 162 153 139 128 124 125 129 131 138 150 153 142 138 151 187 198 183 157 160 183 231 333 10 4 313 205 156 166 199 208 214 242 256 259 275 295 314 316 301 283 273 257 238
357 353 355 354 351 350 350 347 346 346 344 342 341 340 338 341 349 352 346 338 334 337 347 347 329 309 301 272 199 172 151 139 135 129 120 117 124 130 128 125 129 131 134 145 167 191 165 125 47 321 192 215 315 299 246 237 226 187 183 198 206 207 232 258 261 264 284 316 330 314 295 287 277 250
5 2 2 2 1 1 2 1 1 3 2 359 358 356 354 357 5 11 13 13 15 21 30 33 36 45 53 70 120 144 139 128 123 118 112 112 118 122 120 118 128 143 155 162 166 161 120 93 329 301 246 166 270 261 220 226 264 238 187 189 202 213 230 261 279 272 273 284 305 317 317 309 293 283
12 10 10 14 16 15 17 18 18 19 20 19 18 16 15 17 18 20 24 32 42 55 68 73 75 76 74 72 77 86 92 94 96 99 103 111 118 121 123 126 128 132 140 143 141 144 136 110 82 157 163 171 209 237 235 247 277 279 232 186 189 200 222 255 282 283 262 250 254 275 305 304 292 294
16 15 16 20 23 23 27 29 30 31 30 29 30 32 32 32 33 35 39 46 57 71 81 83 82 81 81 79 77 73 72 73 75 74 76 86 97 101 107 112 114 116 121 120 124 142 161 172 176 178 185 195 208 227 243 252 282 308 309 187 180 197 230 249 258 272 267 251 246 252 262 271 283 296
18 18 20 23 26 30 34 35 36 35 33 32 35 38 39 41 43 45 49 52 59 70 75 73 70 71 75 79 78 75 70 66 64 62 66 73 80 87 98 108 111 111 106 77 36 152 174 186 193 194 205 216 217 228 242 251 286 327 322 272 223 242 253 247 247 258 260 252 249 258 266 273 292 309